Tracking 20041 objects as of 22-Nov-2019
Live streaming from Space Station
objects crossing your sky now

NOAA 16 DEB

Track NOAA 16 DEB now!
10-day predictions


NORAD ID: 42342
Int'l Code: 2000-055QJ
Perigee: 771.4 km
Apogee: 796.2 km
Inclination: 99.0 °
Period: 100.4 minutes
Semi major axis: 7154 km
RCS: Unknown
Launch date: September 21, 2000
Source: United States (US)
Launch site: AIR FORCE WESTERN TEST RANGE (AFWTR)

Note: This is SATELLITE DEBRIS
aabbcc
Your satellite tracking list
Your tracking list is empty




NASA's NSSDC Master Catalog

Two Line Element Set (TLE):
1 42342U 00055QJ  17122.05226549  .00026146  00000-0  92584-2 0  9990
2 42342  99.0041 204.0625 0017336 106.0448 254.3218 14.34519994 53925
Source of the keplerian elements: AFSPC